Flag for Brazil Weather past 2 weeks in Porto Alegre, Rio Grande do Sul, Brazil

Now
48 °F

Fog.


Feels Like: 47 °F
Forecast: 49 / 73 °F
Wind: 3 mph from East

Location: Porto Alegre Aero-Porto

Current Time: Jul 22, 2014 at 8:29:42 AM

Latest Report: Jul 22, 2014 at 8:00 AM


Visibility: 3 mi

Pressure: 30.01 "Hg

Humidity: 100%

Dew point: 48 °F

Location of Porto AlegreLocation

Historic Weather in Porto Alegre — Graph

°F

Porto Alegre temperature yesterday

Maximum temperature yesterday: 73 °F (at 2:00 PM)
Minimum temperature yesterday: 45 °F (at 5:00 AM)
Average temperature yesterday: 58 °F

Past Weeks' High & Low Weather Summary

 TemperatureHumidityPressure
High79 °F (Jul 14, 2:00 PM)100% (Jul 8, 2:00 AM)30.42 "Hg (Jul 8, 2:00 AM)
Low39 °F (Jul 18, 7:00 AM)44% (Jul 21, 2:00 PM)29.86 "Hg (Jul 17, 11:00 PM)
Average60 °F81%30.19 "Hg
* Reported Jul 7 7:00 AM — Jul 22 7:00 AM, Porto Alegre, Weather by CustomWeather, © 2014

Note: Actual official high and low records may vary slightly from our data, if they occured in-between our weather recording intervals... More about our weather records

Advertising

Porto Alegre weather history for previous 24 hours

 ConditionsComfort  
Time TempWeatherWind HumidityBarometerVisibility
7:00 AM
Jul 22
48 °FClear.3 mph94%30.01 "Hg5 mi
6:00 AM48 °FClear.3 mph100%30.01 "Hg10 mi
5:00 AM48 °FClear.3 mph94%30.01 "Hg10 mi
4:00 AM50 °FClear.2 mph100%30.01 "Hg10 mi
3:00 AM50 °FClear.3 mph100%30.04 "Hg10 mi
2:00 AM52 °FClear.3 mph100%30.04 "Hg10 mi
1:00 AM52 °FClear.2 mph100%30.04 "Hg10 mi
12:00 AM55 °FClear.5 mph94%30.07 "Hg10 mi
11:00 PM
Jul 21
55 °FClear.7 mph88%30.07 "Hg10 mi
10:00 PM57 °FClear.6 mph88%30.07 "Hg10 mi
9:00 PM59 °FClear.7 mph82%30.07 "Hg10 mi
8:00 PM59 °FClear.7 mph77%30.07 "Hg10 mi
7:00 PM61 °FClear.9 mph77%30.07 "Hg10 mi
6:00 PM66 °FClear.9 mph68%30.07 "Hg10 mi
5:00 PM70 °FClear.9 mph57%30.07 "Hg10 mi
4:00 PM73 °FSunny.8 mph47%30.07 "Hg10 mi
3:00 PM73 °FSunny.5 mph47%30.07 "Hg10 mi
2:00 PM73 °FSunny.3 mph44%30.09 "Hg10 mi
1:00 PM72 °FSunny.3 mph47%30.12 "Hg10 mi
12:00 PM68 °FSunny.2 mph56%30.15 "Hg10 mi
11:00 AM63 °FSunny.3 mph64%30.18 "Hg10 mi
10:00 AM57 °FClear.2 mph82%30.18 "Hg4 mi
9:00 AM52 °FFog.3 mph94%30.18 "Hg2 mi
8:00 AM46 °FFog.3 mph100%30.15 "Hg2 mi
Weather by CustomWeather, © 2014

See weather overviewHow to use our weather pages